[[{"header":{"parameterUnit":"m.s-1","parameterCategory":1,"la1":30.2991,"la2":30.254,"lo1":-89.0895,"lo2":-89.0444,"dy":0.0017,"dx":0.0017,"nx":28,"ny":28,"refTime":"2024-06-26T03:00:00:Z","depth":0,"parameterNumber":2,"parameterNumberName":"U-component_of_WINDS"},"data":[0,0,0,0,0,0,0,0,0,0,0,0,0,0,0,0,0,0,0,0,0,0,0,0,0,0,0,0,0,0,0,0,0,0,0,0,0,0,0,0,0,0,0,0,0,0,0,0,0,0,0,0,0,0,0,0,0,0,4.9285,4.9287,0,4.9451,4.9453,4.9455,4.9406,4.9403,4.9399,4.9396,4.9568,4.9576,4.9584,0,0,0,0,0,0,0,0,0,0,0,0,0,4.8928,4.8935,4.9285,4.9287,4.9289,4.9451,4.9453,4.9455,4.9407,4.9403,4.9399,4.9395,4.9566,4.9575,4.9584,0,0,0,0,0,0,0,0,0,0,0,0,0,4.9088,4.8937,4.9285,4.9285,4.9286,4.945,4.9453,4.9456,4.9408,4.9403,4.9397,4.9393,4.9563,4.9574,4.9586,4.9761,0,0,4.9621,4.9626,0,0,0,0,0,0,0,0,4.9079,4.9101,4.9283,4.9285,4.9287,4.9403,4.939,4.9558,4.9409,4.9362,4.9396,4.939,4.9518,4.9533,4.9575,4.9769,4.9776,4.9622,4.9629,4.9634,4.9638,0,0,0,0,0,0,0,4.9068,4.9094,4.9351,4.9285,4.9288,4.9277,4.9294,4.9422,4.9467,4.9365,4.9362,4.9383,4.9518,4.9564,4.9579,4.9779,4.9622,4.9632,4.964,4.9644,5.0126,5.0131,0,0,0,0,0,0,4.9055,4.9085,4.9346,4.9356,4.9168,4.9287,4.9306,4.9371,4.9465,4.9474,4.9387,4.938,4.9547,4.9565,4.9585,4.9797,4.9634,4.9645,4.9652,5.012,5.0127,5.0133,0,0,0,0,0,0,4.9048,4.9079,4.9339,4.922,4.9252,4.9299,4.9372,4.9377,4.9423,4.9481,4.9489,4.9426,4.9543,4.9568,4.9718,4.9802,4.9651,4.9661,5.0113,5.0122,5.013,5.0222,0,0,0,0,0,0,4.9037,4.9076,4.9143,4.9221,4.9258,4.9469,4.9377,4.9384,4.9443,4.9435,4.952,4.9529,4.9541,4.97,4.9729,4.9815,4.967,5.0106,5.0117,5.0127,5.0211,5.0232,5.0251,0,0,0,0,0,4.9025,4.9162,4.9146,4.9178,4.9342,4.9473,4.9495,4.9505,4.945,4.9518,4.9555,4.9526,4.9788,4.9716,4.9748,4.9839,5.0101,5.0114,5.0127,5.0203,5.0228,5.025,0,0,0,0,0,0,4.9093,4.9173,4.9156,4.9323,4.9392,4.9465,4.9551,4.9532,4.9619,4.9608,4.9619,4.9638,4.9791,4.983,4.9748,5.0014,4.9936,4.9956,4.9983,5.0008,5.0027,5.0015,4.968,0,0,0,0,0,4.9127,4.9227,4.9291,4.9432,4.9467,4.9503,4.9561,4.9563,4.9635,4.9664,4.9713,4.9784,4.9883,4.9947,5.0041,5.0217,5.0235,5.0295,5.0315,5.033,5.0348,5.0444,5.0472,5.0176,5.0176,5.0176,0,0,4.92,4.9255,4.9317,4.9447,4.9501,4.9604,4.9528,4.964,4.9717,4.9682,4.9825,4.9864,4.9944,5.0108,5.0182,5.0145,5.0433,5.0347,5.0359,5.0368,5.046,5.0488,5.0513,5.0185,5.0183,5.0182,0,0,4.9384,4.9436,4.9559,4.9614,4.9697,4.972,4.9749,4.9826,4.985,4.9994,4.997,5.0061,5.0231,5.0289,5.0341,5.0549,5.0526,5.0579,5.0681,5.0775,5.0798,5.0819,5.0894,5.092,5.0596,5.0596,5.0596,0,4.9464,4.9617,4.9625,4.974,4.9798,4.977,4.9895,4.9949,5.0058,5.0099,5.0055,5.0267,5.032,5.0497,5.0547,5.059,5.0625,5.057,5.0794,5.0815,5.0835,5.0906,5.0934,5.0602,5.0602,5.0601,5.06,0,4.9711,4.9818,4.9908,5.0014,5.0082,5.0202,5.0228,5.0297,5.0293,5.0321,5.0469,5.0531,5.0637,5.0679,5.0677,5.0856,5.0831,5.0791,5.0713,5.0869,5.0936,5.0963,5.0611,5.0609,5.0607,5.0605,0,0,4.9943,5.0051,5.0084,5.0132,5.0221,5.0304,5.0423,5.0526,5.0585,5.0661,5.0761,5.0905,5.0869,5.0928,5.0933,5.1015,5.1176,5.0965,5.0967,5.1002,5.1378,5.1407,5.1439,5.1161,5.1166,5.117,5.1371,0,5.0136,5.0343,5.0354,5.0544,5.0643,5.0618,5.0721,5.0787,5.0817,5.0906,5.0939,5.1041,5.0985,5.1021,5.1101,5.1139,5.1251,5.1125,5.1255,5.126,5.1236,5.1474,5.1505,5.1692,5.1397,5.1402,5.1405,0,5.0388,5.0471,5.067,5.0745,5.0787,5.088,5.0975,5.1061,5.1136,5.1151,5.1218,5.121,5.1333,5.1251,5.142,5.1334,5.1388,5.1414,5.1422,5.1435,5.1342,5.1494,5.1752,5.178,5.1446,5.1443,5.144,0,5.0538,5.07,5.084,5.0881,5.0972,5.1038,5.1079,5.1149,5.121,5.1294,5.1334,5.1431,5.1485,5.1561,5.158,5.1519,5.175,5.1669,5.1767,5.1767,5.1817,5.1814,5.2088,5.1852,5.1851,5.1851,5.185,0,5.0752,5.0874,5.0909,5.0995,5.1132,5.1144,5.1279,5.1316,5.1378,5.1472,5.1456,5.1545,5.1565,5.1657,5.1674,5.1812,5.1836,5.1853,5.1856,5.1854,5.1852,5.189,5.1878,5.1858,5.1856,5.1855,5.1854,0,5.0942,5.097,5.1121,5.1195,5.1216,5.1314,5.1377,5.1461,5.1488,5.1606,5.1635,5.1678,5.1787,5.1813,5.1943,5.1954,5.2117,5.2107,5.2092,5.2091,5.2188,5.2179,5.2497,5.2539,5.2274,5.2277,5.2279,0,5.1077,5.1171,5.1255,5.1316,5.136,5.1458,5.1521,5.1536,5.1602,5.1694,5.1767,5.1873,5.1959,5.2133,5.2177,5.2276,5.2268,5.2373,5.2283,5.2279,5.2271,5.2265,5.2275,5.239,5.2393,5.2395,5.2397,0,5.1314,5.1323,5.1413,5.1509,5.1584,5.166,5.1733,5.1784,5.1809,5.1885,5.1995,5.2061,5.2193,5.2299,5.2399,5.2441,5.2425,5.2425,5.2453,5.2453,5.244,5.2449,5.2139,5.2418,5.2416,5.2414,5.2413,5.2412,5.1481,5.1564,5.1635,5.1737,5.1793,5.1861,5.1943,5.1981,5.2072,5.218,5.2184,5.2304,5.2377,5.2509,5.2558,5.2652,5.2621,5.2661,5.2671,5.2681,5.269,5.2425,5.2671,5.267,5.2669,5.2669,5.2669,0,5.1718,5.1762,5.1855,5.1957,5.2037,5.2013,5.2093,5.2161,5.2267,5.2336,5.2421,5.2547,5.265,5.2702,5.2804,5.287,5.2865,5.2896,5.2892,5.2902,5.2712,5.2678,5.2899,5.2899,5.2899,5.2899,5.2898,5.2898,5.185,5.1988,5.2006,5.2172,5.2216,5.2333,5.238,5.2444,5.2499,5.2641,5.2726,5.2759,5.2821,5.2928,5.3021,5.3034,5.3072,5.3108,5.3117,5.2939,5.2915,5.2893,5.2861,5.3116,5.3117,5.3299,5.33,5.3302]},{"header":{"parameterUnit":"m.s-1","parameterCategory":1,"la1":30.2991,"la2":30.254,"lo1":-89.0895,"lo2":-89.0444,"dy":0.0017,"dx":0.0017,"nx":28,"ny":28,"refTime":"2024-06-26T03:00:00:Z","depth":0,"parameterNumber":3,"parameterNumberName":"V-component_of_WINDS"},"data":[0,0,0,0,0,0,0,0,0,0,0,0,0,0,0,0,0,0,0,0,0,0,0,0,0,0,0,0,0,0,0,0,0,0,0,0,0,0,0,0,0,0,0,0,0,0,0,0,0,0,0,0,0,0,0,0,0,0,-0.349,-0.349,0,-0.3487,-0.3487,-0.3487,-0.3483,-0.3483,-0.3483,-0.3483,-0.3479,-0.3479,-0.3479,0,0,0,0,0,0,0,0,0,0,0,0,0,-0.3492,-0.3492,-0.349,-0.349,-0.349,-0.3487,-0.3487,-0.3487,-0.3483,-0.3483,-0.3483,-0.3483,-0.3479,-0.3479,-0.3479,0,0,0,0,0,0,0,0,0,0,0,0,0,-0.349,-0.3492,-0.349,-0.3488,-0.3488,-0.3487,-0.3487,-0.3487,-0.3483,-0.3483,-0.3483,-0.3483,-0.3479,-0.3479,-0.3479,-0.3481,0,0,-0.3479,-0.3479,0,0,0,0,0,0,0,0,-0.349,-0.349,-0.3488,-0.3488,-0.3488,-0.3486,-0.3486,-0.3485,-0.3483,-0.3485,-0.3483,-0.3483,-0.3481,-0.3481,-0.3481,-0.348,-0.348,-0.3479,-0.3479,-0.3479,-0.3479,0,0,0,0,0,0,0,-0.349,-0.349,-0.3489,-0.3488,-0.3488,-0.3487,-0.3486,-0.3486,-0.3484,-0.3485,-0.3484,-0.3484,-0.3481,-0.3481,-0.3481,-0.348,-0.3479,-0.3479,-0.3479,-0.3479,-0.3481,-0.3482,0,0,0,0,0,0,-0.3491,-0.349,-0.3489,-0.3489,-0.3489,-0.3487,-0.3486,-0.3486,-0.3484,-0.3483,-0.3484,-0.3484,-0.3481,-0.3481,-0.3481,-0.3482,-0.3479,-0.3479,-0.3479,-0.3481,-0.3481,-0.3482,0,0,0,0,0,0,-0.3491,-0.3491,-0.3489,-0.349,-0.3489,-0.3487,-0.3487,-0.3486,-0.3486,-0.3483,-0.3483,-0.3484,-0.3481,-0.3481,-0.3481,-0.3482,-0.3479,-0.3479,-0.3481,-0.3481,-0.3482,-0.3485,0,0,0,0,0,0,-0.3491,-0.3491,-0.3491,-0.349,-0.3489,-0.3489,-0.3487,-0.3486,-0.3486,-0.3486,-0.3483,-0.3483,-0.3481,-0.3481,-0.3481,-0.3482,-0.3479,-0.3481,-0.3481,-0.3481,-0.3485,-0.3486,-0.3486,0,0,0,0,0,-0.3491,-0.3492,-0.3491,-0.3491,-0.349,-0.3489,-0.3489,-0.3487,-0.3486,-0.3486,-0.3485,-0.3483,-0.3482,-0.3481,-0.3481,-0.3482,-0.3481,-0.3481,-0.3481,-0.3485,-0.3486,-0.3486,0,0,0,0,0,0,-0.3494,-0.3492,-0.3491,-0.3492,-0.3491,-0.3489,-0.3489,-0.3488,-0.3487,-0.3487,-0.3484,-0.3484,-0.3484,-0.3483,-0.3482,-0.3483,-0.3481,-0.3481,-0.3484,-0.3485,-0.3485,-0.3485,-0.3479,0,0,0,0,0,-0.3495,-0.3495,-0.3493,-0.3494,-0.3493,-0.3492,-0.3491,-0.349,-0.3489,-0.3488,-0.3487,-0.3486,-0.3485,-0.3485,-0.3484,-0.3485,-0.3485,-0.3486,-0.3486,-0.3487,-0.3487,-0.3488,-0.3488,-0.3482,-0.3482,-0.3482,0,0,-0.3496,-0.3495,-0.3495,-0.3494,-0.3493,-0.3494,-0.3491,-0.3491,-0.3491,-0.3488,-0.3488,-0.3487,-0.3486,-0.3487,-0.3487,-0.3486,-0.3488,-0.3487,-0.3487,-0.3487,-0.3488,-0.3488,-0.3489,-0.3483,-0.3482,-0.3482,0,0,-0.3499,-0.3498,-0.3498,-0.3498,-0.3497,-0.3496,-0.3496,-0.3495,-0.3494,-0.3494,-0.3492,-0.3492,-0.3491,-0.349,-0.349,-0.3493,-0.3491,-0.3493,-0.3495,-0.3496,-0.3496,-0.3497,-0.3498,-0.3498,-0.3493,-0.3493,-0.3493,0,-0.35,-0.35,-0.3499,-0.3499,-0.3499,-0.3497,-0.3498,-0.3497,-0.3496,-0.3496,-0.3495,-0.3494,-0.3493,-0.3494,-0.3494,-0.3494,-0.3494,-0.3493,-0.3497,-0.3497,-0.3497,-0.3498,-0.3499,-0.3493,-0.3493,-0.3493,-0.3493,0,-0.3503,-0.3503,-0.3504,-0.3503,-0.3503,-0.3503,-0.3502,-0.3502,-0.3501,-0.35,-0.35,-0.3499,-0.3499,-0.3499,-0.3497,-0.3499,-0.3499,-0.3497,-0.3495,-0.3498,-0.3499,-0.3499,-0.3494,-0.3494,-0.3494,-0.3493,0,0,-0.3506,-0.3505,-0.3505,-0.3505,-0.3505,-0.3505,-0.3505,-0.3505,-0.3505,-0.3505,-0.3505,-0.3505,-0.3504,-0.3503,-0.3502,-0.3503,-0.3505,-0.3501,-0.3501,-0.3502,-0.3508,-0.3508,-0.3509,-0.3504,-0.3504,-0.3505,-0.3508,0,-0.3508,-0.3509,-0.3508,-0.351,-0.351,-0.3508,-0.3509,-0.3509,-0.3508,-0.3508,-0.3507,-0.3507,-0.3506,-0.3505,-0.3506,-0.3505,-0.3506,-0.3505,-0.3505,-0.3505,-0.3505,-0.3509,-0.351,-0.3513,-0.3508,-0.3508,-0.3508,0,-0.3511,-0.3511,-0.3512,-0.3512,-0.3512,-0.3513,-0.3512,-0.3513,-0.3512,-0.3512,-0.3512,-0.351,-0.3511,-0.3509,-0.351,-0.3509,-0.3509,-0.3509,-0.3509,-0.3508,-0.3506,-0.3509,-0.3514,-0.3514,-0.3509,-0.3509,-0.3509,0,-0.3513,-0.3514,-0.3515,-0.3515,-0.3514,-0.3515,-0.3514,-0.3514,-0.3514,-0.3514,-0.3514,-0.3514,-0.3514,-0.3514,-0.3513,-0.3512,-0.3514,-0.3512,-0.3513,-0.3513,-0.3513,-0.3513,-0.3518,-0.3514,-0.3514,-0.3514,-0.3514,0,-0.3516,-0.3517,-0.3516,-0.3516,-0.3517,-0.3516,-0.3518,-0.3517,-0.3517,-0.3517,-0.3516,-0.3517,-0.3515,-0.3516,-0.3515,-0.3516,-0.3516,-0.3515,-0.3515,-0.3515,-0.3515,-0.3515,-0.3514,-0.3514,-0.3514,-0.3514,-0.3514,0,-0.3518,-0.3518,-0.3519,-0.3519,-0.3519,-0.3519,-0.3519,-0.352,-0.3519,-0.352,-0.352,-0.3519,-0.352,-0.3519,-0.3519,-0.3518,-0.352,-0.3519,-0.352,-0.3519,-0.3521,-0.3521,-0.3525,-0.3526,-0.3521,-0.3522,-0.3522,0,-0.352,-0.352,-0.352,-0.3521,-0.3521,-0.3521,-0.3522,-0.3521,-0.3521,-0.3521,-0.3522,-0.3522,-0.3523,-0.3523,-0.3523,-0.3523,-0.3522,-0.3524,-0.3522,-0.3523,-0.3522,-0.3522,-0.3522,-0.3524,-0.3524,-0.3524,-0.3524,0,-0.3522,-0.3522,-0.3523,-0.3523,-0.3524,-0.3524,-0.3524,-0.3525,-0.3524,-0.3524,-0.3525,-0.3525,-0.3526,-0.3526,-0.3526,-0.3526,-0.3525,-0.3525,-0.3525,-0.3525,-0.3526,-0.3525,-0.352,-0.3525,-0.3525,-0.3525,-0.3525,-0.3525,-0.3524,-0.3525,-0.3525,-0.3526,-0.3526,-0.3527,-0.3527,-0.3527,-0.3528,-0.3528,-0.3528,-0.3529,-0.3529,-0.3529,-0.3529,-0.353,-0.3529,-0.3529,-0.3529,-0.3529,-0.3529,-0.3526,-0.353,-0.353,-0.353,-0.353,-0.353,0,-0.3527,-0.3527,-0.3528,-0.3528,-0.3529,-0.3529,-0.3529,-0.3529,-0.353,-0.3531,-0.3531,-0.3532,-0.3533,-0.3532,-0.3533,-0.3533,-0.3533,-0.3533,-0.3533,-0.3533,-0.353,-0.353,-0.3534,-0.3534,-0.3534,-0.3534,-0.3534,-0.3534,-0.3528,-0.3529,-0.3529,-0.3531,-0.3531,-0.3532,-0.3532,-0.3533,-0.3533,-0.3534,-0.3535,-0.3535,-0.3535,-0.3536,-0.3536,-0.3536,-0.3536,-0.3537,-0.3537,-0.3534,-0.3533,-0.3533,-0.3533,-0.3537,-0.3537,-0.354,-0.354,-0.354]}]]